Погода в Джау

Узбекистан     40°35′32″N   71°06′38″E
темп.,
°C
ветер,
м/с
пор.,
м/с
влажн.,
%
обл.,
%
осадки,
мм/ч
давл.,
гПа
погр.,
м
27 февраля, сб
сб2723:000всв242266 0.0 1031404
02:00−1вюв1226100 0.0 1029201
05:00−1в1127100 0.0 1030168
08:000всв1127100 0.0 1029212
11:00+2в1122100 0.0 1029670
14:00+4всв1118100 0.0 1029829
17:00+5в221898 0.1 1031830
20:00+3всв462383 0.0 1035580
28 февраля, вс
вс2823:00+2всв483445 0.0 1035420
02:000в35430 0.0 1033227
05:00−1юв23490 0.0 1031119
08:000вюв23450 0.0 1029167
11:00+4всв34310 0.0 1025615
14:00+8всв34240 0.0 10221062
17:00+9всв34220 0.0 10221090
20:00+7всв24280 0.0 1024134
1 марта, пн
пн123:00+5в24320 0.0 1024111
02:00+4в223992 0.0 102480
05:00+3в124187 0.0 102339
08:00+3в2441100 0.0 1024140
11:00+8всв342785 0.0 1022493
14:00+12всв341925 0.0 1020822
17:00+13св231713 0.0 1021816
20:00+10всв12210 0.0 102422
2 марта, вт
вт223:00+8вюв22230 0.0 102522
02:00+6в232938 0.0 102556
05:00+6всв234069 0.0 102464
08:00+6всв2340100 0.0 1024119
11:00+10св2327100 0.0 1022370
14:00+13всв2220100 0.0 1021603
17:00+13св1119100 0.0 1020378
20:00+11ссв1121100 0.0 102222
3 марта, ср
ср323:00+10юв1123100 0.0 102322
02:00+9юв1125100 0.0 102222
05:00+9зюз0027100 0.0 102122
08:00+9сз1127100 0.0 102122
11:00+13св1122100 0.0 1019601
14:00+15юз0119100 0.0 10171281
17:00+15з3328100 0.0 10181464
20:00+12зюз595498 0.1 1020627